SL-14 DEB

Satellite information

Favourite Embed

Satellite Type and Status

DEBRISIN ORBIT

Key statistics

Satellite SL-14 DEB at a glance.

Uptime

12440

Days in orbit

Revolutions

≈ 13.8

Per day

Orbit

LEO

Low Earth Orbit

Inclination

82.6

Latest

Satellite identification and parameters

Extended collection of information and parameters for SL-14 DEB.

Object identification

Identified? True

Debris? True

Object name: SL-14 DEB

International designator: 1991-056CC

Object number (NORAD): 45338

Object ID (CCSDS): 45338

Country: COMMONWEALTH OF INDEPENDENT STATES (CIS)

Current information (Y/N): Y

RCS size: SMALL

Orbital parameters

Period: 104.688 minutes

Inclination: 82.567 deg

SMA: 7357.969 km

Apoapsis: 1086.975 km

Periapsis: 872.693 km

RAAN: 248.9805 deg

Eccentricy: 0.01456121

Argument of periapsis: 99.9072 deg

Mean anomaly: 261.8556 deg

Mean motion: 13.75516651 rev/day

Mean motion (dot): 0.00012551 rev/day2

B* drag term: 0.012043781 1/REarth

Two-line elements (TLE)

Creation date: Sept. 4, 2025, 10:13 a.m.

Reference frame: TEME

Reference center: EARTH

Epoch: Sept. 4, 2025, 12:24 a.m. UTC

TLE line 0: 0 SL-14 DEB

TLE line 1: 1 45338U 91056CC 25247.01687702 .00012551 00000-0 12044-1 0 9991

TLE line 2: 2 45338 82.5670 248.9805 0145612 99.9072 261.8556 13.75516651272299

Live tracking on map

Real-time ground track for satellite SL-14 DEB.

In-orbit conjunctions

A list of the most updated potential collisions computed for object SL-14 DEB.

Target Orbit TCA Probability of collision Miss distance Type
MOS 1A (MOMO 1) SSO 2025-04-30 22:54:48 0.0001118759 370.0 (m) PAYLOAD
GGSE 3 LEO 2025-03-21 03:45:54 0.0002196244 872.0 (m) PAYLOAD

Associated space launch

Third generation meteorological satellite

SL-14 DEB was lifted into orbit during the mission ‘Tsiklon-3 | Meteor-3 5’, on board a Tsiklon-3 space rocket.

The launch took place on Aug. 15, 1991, 9:15 a.m. from 32/2.

For more information about the launch, click the button.

Launch to space Tsiklon-3 | Meteor-3 5
Tsiklon-3 | Meteor-3 5

Agency: N/A

Status: Launch Successful

Launch date: Aug. 15, 1991, 9:15 a.m. UTC

Rocket: Tsiklon-3

Launch pad: 32/2

Location: Plesetsk Cosmodrome, Russian Federation

...

Latest news about this satellite

There are no fresh news available about this satellite. Check back as we update our databases every day.


Newsletter sign-up

Weekly statistics, charts and insights to help you stay on top of the space industry.